Location: Newark
(48.1500°N, 2.9667°W)
Time: 20:51:20
(UTC+00:00)

A-11 Canister half - Pass Details

Date: 01 February 2020
Orbit: 1517 x 1683 km, 47.2° (Epoch: 22 February)

Event Time Altitude Azimuth Distance (km) Brightness Sun altitude
Exits shadow 02:32:40 16° 115° (ESE) 3,217 10.8 -49.7°
Drops below altitude 10° 02:34:08 10° 114° (ESE) 3,681 11.2 -49.5°
Sets 02:37:10 0° 113° (ESE) 4,670 11.8 -49.1°
